This is the latest recevied weather packets stored in our database for station/object K9MWD. If no packets are shown the sender has not sent any weather packets the latest 10 day(s).
| Time | Temp. | Humidity | Pressure | Rain* | Wind** | Luminosity | Snow |
|---|---|---|---|---|---|---|---|
| 1777648429 | 12.78° C | 90% | 1016.9 hPa | 0 mm | - | 59 W/m² | - |
| 1777648125 | 13.33° C | 89% | 1016.9 hPa | 1.27 mm | - | 61 W/m² | - |
| 1777647821 | 13.33° C | 89% | 1016.8 hPa | 1.27 mm | - | 65 W/m² | - |
| 1777647518 | 12.78° C | 88% | 1016.8 hPa | 1.27 mm | - | 56 W/m² | - |
| 1777647215 | 12.78° C | 88% | 1016.8 hPa | 1.78 mm | - | 53 W/m² | - |
| 1777646912 | 12.78° C | 88% | 1016.8 hPa | 1.78 mm | - | 57 W/m² | - |
| 1777646607 | 12.78° C | 88% | 1016.9 hPa | 1.27 mm | - | 51 W/m² | - |
| 1777646304 | 12.78° C | 88% | 1016.8 hPa | 1.27 mm | - | 48 W/m² | - |
| 1777646001 | 13.33° C | 89% | 1016.8 hPa | 1.78 mm | - | 41 W/m² | - |
| 1777645698 | 13.33° C | 89% | 1017 hPa | 1.78 mm | - | 37 W/m² | - |
| 1777645394 | 13.33° C | 89% | 1017.1 hPa | 1.27 mm | - | 37 W/m² | - |
| 1777645090 | 13.89° C | 89% | 1017.2 hPa | 3.05 mm | - | 38 W/m² | - |
| 1777644786 | 13.89° C | 88% | 1017.1 hPa | 3.05 mm | - | 40 W/m² | - |
| 1777644484 | 13.89° C | 88% | 1017.2 hPa | 3.05 mm | - | 40 W/m² | - |
| 1777644180 | 13.89° C | 87% | 1016.9 hPa | 1.78 mm | - | 37 W/m² | - |
| 1777643877 | 13.89° C | 87% | 1016.8 hPa | 0 mm | - | 29 W/m² | - |
| 1777643575 | 13.89° C | 87% | 1016.9 hPa | 0 mm | - | 29 W/m² | - |
| 1777643271 | 13.89° C | 87% | 1016.7 hPa | 0 mm | - | 34 W/m² | - |
| 1777642968 | 13.89° C | 87% | 1016.5 hPa | 0 mm | - | 37 W/m² | - |
| 1777642664 | 13.89° C | 87% | 1016.5 hPa | 0 mm | - | 34 W/m² | - |
| 1777642361 | 13.89° C | 87% | 1016.2 hPa | 0 mm | - | 42 W/m² | - |
| 1777642057 | 13.89° C | 87% | 1015.8 hPa | 0 mm | - | 44 W/m² | - |
| 1777641754 | 13.89° C | 87% | 1016 hPa | 0 mm | - | 49 W/m² | - |
| 1777641454 | 13.89° C | 86% | 1015.9 hPa | 0 mm | - | 35 W/m² | - |
| 1777641150 | 13.89° C | 87% | 1016.3 hPa | 1.78 mm | - | 26 W/m² | - |
* Rain latest hour (hover to see other rain measurements)
** Current wind speed in m/s (hover to see current wind gust speed)